TimeWET,TemperatureF,Dew PointF,Humidity,Sea Level PressureIn,VisibilityMPH,Wind Direction,Wind SpeedMPH,Gust SpeedMPH,PrecipitationIn,Events,Conditions,WindDirDegrees,DateUTC
12:00 AM,54,52,90,29.72,6,SSW,4.6,,,Rain,Rain,200,2013-04-04 00:00:00
12:00 AM,55.4,51.8,88,29.71,6.2,SSW,4.6,-,N/A,Rain,Light Rain,200,2013-04-04 00:00:00
1:00 AM,53.6,51.8,94,29.71,6.2,SW,4.6,-,N/A,Rain,Light Rain,220,2013-04-04 01:00:00
2:00 AM,53.6,51.8,94,29.68,6.2,SSW,4.6,-,N/A,,Mostly Cloudy,210,2013-04-04 02:00:00
3:00 AM,51,47,81,29.68,6,West,11.5,,,,Overcast,260,2013-04-04 03:00:00
3:00 AM,51.8,46.4,82,29.68,6.2,West,10.4,-,N/A,,Mostly Cloudy,260,2013-04-04 03:00:00
4:00 AM,50.0,44.6,82,29.65,6.2,Variable,2.3,-,N/A,,Unknown,0,2013-04-04 04:00:00
5:00 AM,50.0,44.6,82,29.65,-9999.0,West,6.9,-,N/A,,Unknown,280,2013-04-04 05:00:00
6:00 AM,51,44,70,29.67,9,WNW,3.5,,,,,300,2013-04-04 06:00:00
6:00 AM,51.8,44.6,76,29.65,6.2,WNW,3.5,-,N/A,,Scattered Clouds,290,2013-04-04 06:00:00
7:00 AM,51.8,44.6,76,29.68,6.2,SW,12.7,-,N/A,,Scattered Clouds,230,2013-04-04 07:00:00
8:00 AM,57.2,46.4,67,29.68,6.2,SW,17.3,-,N/A,,Scattered Clouds,230,2013-04-04 08:00:00
9:00 AM,60,46,49,29.66,9,WSW,18.4,,,,Partly Cloudy,250,2013-04-04 09:00:00
9:00 AM,60.8,44.6,55,29.68,6.2,WSW,18.4,-,N/A,,Scattered Clouds,240,2013-04-04 09:00:00
10:01 AM,64.4,44.6,49,29.68,6.2,WSW,24.2,35.7,N/A,,Scattered Clouds,250,2013-04-04 10:01:00
11:00 AM,64.4,44.6,49,29.68,6.2,West,24.2,-,N/A,,Scattered Clouds,270,2013-04-04 11:00:00
12:00 PM,67,44,31,29.64,9,WSW,27.6,,,,Partly Cloudy,250,2013-04-04 12:00:00
12:00 PM,66.2,42.8,43,29.68,6.2,WSW,27.6,-,N/A,,Scattered Clouds,250,2013-04-04 12:00:00
2:00 PM,68.0,41.0,37,29.68,6.2,West,25.3,-,N/A,,Scattered Clouds,260,2013-04-04 14:00:00
2:33 PM,68.0,41.0,37,29.68,6.2,West,26.5,38.0,N/A,,Scattered Clouds,270,2013-04-04 14:33:00
3:00 PM,65,40,29,29.64,12,West,24.2,,,,Partly Cloudy,260,2013-04-04 15:00:00
3:00 PM,66.2,41.0,40,29.68,6.2,West,24.2,38.0,N/A,,Scattered Clouds,260,2013-04-04 15:00:00
4:00 PM,59.0,48.2,67,29.71,6.2,NNW,16.1,-,N/A,,Scattered Clouds,340,2013-04-04 16:00:00
5:00 PM,59.0,50.0,72,29.71,6.2,North,10.4,-,N/A,,Scattered Clouds,360,2013-04-04 17:00:00
7:00 PM,53.6,50.0,88,29.74,6.2,East,3.5,-,N/A,,Scattered Clouds,100,2013-04-04 19:00:00
8:00 PM,51.8,46.4,82,29.74,6.2,WSW,10.4,-,N/A,,Scattered Clouds,240,2013-04-04 20:00:00
8:45 PM,54,43,58,29.78,9,West,10.4,,,,Partly Cloudy,260,2013-04-04 20:45:00
10:00 PM,51.8,42.8,71,29.77,6.2,SW,13.8,-,N/A,,Scattered Clouds,230,2013-04-04 22:00:00
11:45 PM,54,43,56,29.78,9,SW,12.7,,,,Partly Cloudy,230,2013-04-04 23:45:00